Back to catalog

STARLINK-3850

AliveCommunicationsVLEO
NORAD 52342·PAYLOAD·🇺🇸 United States

Launched Apr 29, 2022 from Cape Canaveral Space Force Station

Loading…

Next Passes (next 24 hours)

TLE

FreshSource: CelesTrak SupGP

Epoch: Sep 14, 2026, 13:09 UTC

1 52342C 22045M   26257.54840278 -.00015824  00000+0 -46732-3 0  2572
2 52342  53.1590  63.3263 0001287  84.9673 358.4355 15.34412383    17

Track STARLINK-3850 in real time with AllMySat

Download on the App Store